Location: Unspecified
(41.1637°N, 24.2901°E)
Time: 11:29:11
(UTC+02:00)

ISS - Pass Details

Date: 09 May 2026
Orbit: 414 x 424 km, 51.6° (Epoch: 12 May)

Event Time Altitude Azimuth Distance (km) Brightness Sun altitude
Rises 23:19:24 0° 293° (WNW) 2,352 0.6 -29.7°
Reaches altitude 10° 23:22:15 10° 320° (NW) 1,491 -0.2 -29.8°
Maximum altitude 23:24:08 14° 354° (N) 1,263 -0.5 -29.9°
Enters shadow 23:24:23 14° 360° (N) 1,268 -0.6 -29.9°
